Marysville, OH

9:41 PM EDT on March 29, 2017 (GMT -0400)
Marysville

Weather History for KMRT - January, 2013

Change the Weather History Date:

Wednesday, January 9, 2013

  Actual Average (KDLZ) Record (KDLZ)
Temperature  
Mean Temperature 35 °F -  
Max Temperature 42 °F 29 °F 62 °F (1937)
Min Temperature 28 °F 11 °F -13 °F (1968)
Degree Days  
Heating Degree Days 30    
Moisture  
Dew Point 30 °F    
Average Humidity 78    
Maximum Humidity 94    
Minimum Humidity 69    
Precipitation  
Precipitation 0.00 in - - ()
Sea Level Pressure  
Sea Level Pressure 30.30 in    
Wind  
Wind Speed 9 mph (WSW)    
Max Wind Speed 16 mph    
Max Gust Speed 22 mph    
Visibility 10 miles    
Events      
Averages and records for this station are not official NWS values.
T = Trace of Precipitation, MM = Missing Value Source: NWS Daily Summary

Daily Weather History Graph

Daily Weather History Graph

Search for Another Location

Airport or City:

Trip Planner

Search our weather history database for the weather conditions in past years. The results will help you decide how hot, cold, wet, or windy it might be!

Date:

Astronomy

Jan. 09, 2013 Rise Set
Actual Time 7:55 AM EST 5:25 PM EST
Civil Twilight 7:25 AM EST 5:56 PM EST
Nautical Twilight 6:51 AM EST 6:29 PM EST
Astronomical Twilight 6:18 AM EST 7:02 PM EST
Moon 5:33 AM EST (1/9) 3:26 PM EST (1/9)
Length of Visible Light 10h 30m
Length of Day
9h 30m
Waning Crescent, 6% of the Moon is Illuminated
Jan 9
Waning Crescent
Jan 11
New
Jan 18
First Quarter
Jan 26
Full
Feb 3
Last Quarter

Hourly Weather History & Observations

Time (EST) Temp. Windchill Dew Point Humidity Pressure Visibility Wind Dir Wind Speed Gust Speed Precip Events Conditions
12:14 AM 32.5 °F 25.5 °F 26.2 °F 78% 30.22 in 10.0 mi SSW 8.1 mph - N/A   Clear
12:34 AM 29.5 °F 21.8 °F 24.1 °F 80% 30.23 in 10.0 mi SW 8.1 mph - N/A   Clear
12:54 AM 28.8 °F 20.9 °F 23.5 °F 81% 30.23 in 10.0 mi SW 8.1 mph - N/A   Clear
1:14 AM 30.4 °F 21.5 °F 24.4 °F 79% 30.22 in 10.0 mi SSW 10.4 mph - N/A   Clear
1:34 AM 31.1 °F 24.5 °F 25.2 °F 79% 30.21 in 10.0 mi SSW 6.9 mph - N/A   Clear
1:54 AM 32.0 °F 25.6 °F 25.5 °F 77% 30.20 in 10.0 mi SSW 6.9 mph - N/A   Clear
2:14 AM 30.9 °F 24.3 °F 24.4 °F 77% 30.21 in 10.0 mi SSW 6.9 mph - N/A   Clear
2:34 AM 32.0 °F 24.8 °F 25.0 °F 75% 30.21 in 10.0 mi SSW 8.1 mph - N/A   Clear
2:54 AM 31.1 °F 24.5 °F 24.4 °F 76% 30.21 in 10.0 mi SSW 6.9 mph - N/A   Clear
3:14 AM 32.0 °F 24.8 °F 25.5 °F 77% 30.20 in 10.0 mi SSW 8.1 mph - N/A   Scattered Clouds
3:34 AM 34.2 °F 26.2 °F 26.6 °F 74% 30.20 in 10.0 mi SSW 10.4 mph - N/A   Overcast
3:54 AM 34.7 °F 26.9 °F 26.6 °F 72% 30.20 in 10.0 mi SSW 10.4 mph - N/A   Overcast
4:14 AM 34.9 °F 26.6 °F 27.5 °F 74% 30.20 in 10.0 mi SSW 11.5 mph - N/A   Overcast
4:34 AM 36.3 °F 28.9 °F 28.0 °F 72% 30.19 in 10.0 mi SSW 10.4 mph - N/A   Overcast
4:54 AM 36.3 °F 28.4 °F 28.8 °F 74% 30.17 in 10.0 mi SSW 11.5 mph - N/A   Overcast
5:14 AM 37.8 °F 30.2 °F 29.8 °F 73% 30.18 in 10.0 mi SW 11.5 mph - N/A   Overcast
5:34 AM 36.9 °F 29.6 °F 30.0 °F 76% 30.18 in 10.0 mi SW 10.4 mph - N/A   Overcast
5:54 AM 37.4 °F 29.8 °F 30.7 °F 77% 30.18 in 10.0 mi SW 11.5 mph - N/A   Overcast
6:14 AM 37.2 °F 29.1 °F 31.1 °F 79% 30.19 in 10.0 mi SW 12.7 mph - N/A   Overcast
6:34 AM 37.8 °F 30.2 °F 31.8 °F 79% 30.20 in 10.0 mi SW 11.5 mph - N/A   Overcast
7:14 AM 39.4 °F 32.3 °F 32.0 °F 75% 30.21 in 10.0 mi WSW 11.5 mph - N/A   Overcast
7:34 AM 39.7 °F 32.3 °F 32.0 °F 74% 30.22 in 7.0 mi WSW 12.7 mph - N/A   Overcast
8:14 AM 37.9 °F 30.9 °F 32.5 °F 81% 30.23 in 5.0 mi SW 10.4 mph - N/A   Overcast
8:34 AM 38.5 °F 32.1 °F 33.1 °F 81% 30.23 in 10.0 mi WSW 9.2 mph - N/A   Overcast
8:54 AM 39.2 °F 31.2 °F 34.0 °F 82% 30.23 in 10.0 mi WSW 13.8 mph - N/A   Overcast
9:13 AM 39.2 °F 30.8 °F 34.0 °F 82% 30.24 in 10.0 mi WSW 15.0 mph 20.7 mph N/A   Overcast
9:34 AM 39.4 °F 32.3 °F 34.2 °F 82% 30.25 in 10.0 mi WSW 11.5 mph 17.3 mph N/A   Scattered Clouds
10:13 AM 39.2 °F 31.6 °F 34.2 °F 82% 30.27 in 10.0 mi WSW 12.7 mph - N/A   Clear
10:34 AM 39.7 °F 32.3 °F 34.7 °F 82% 30.28 in 10.0 mi WSW 12.7 mph - N/A   Clear
10:54 AM 39.7 °F 33.2 °F 34.7 °F 82% 30.28 in 10.0 mi West 10.4 mph - N/A   Clear
11:13 AM 40.8 °F 32.9 °F 35.2 °F 80% 30.29 in 10.0 mi West 15.0 mph - N/A   Scattered Clouds
11:34 AM 42.1 °F 35.2 °F 34.9 °F 76% 30.29 in 10.0 mi West 12.7 mph 21.9 mph N/A   Clear
11:54 AM 41.7 °F 34.4 °F 34.7 °F 76% 30.28 in 10.0 mi West 13.8 mph - N/A   Clear
12:14 PM 41.9 °F 34.0 °F 34.3 °F 75% 30.29 in 10.0 mi West 16.1 mph - N/A   Clear
12:34 PM 41.9 °F 34.3 °F 34.0 °F 73% 30.28 in 10.0 mi West 15.0 mph - N/A   Clear
12:54 PM 42.1 °F 35.2 °F 34.0 °F 73% 30.28 in 10.0 mi West 12.7 mph - N/A   Clear
1:14 PM 42.3 °F 34.8 °F 33.8 °F 72% 30.27 in 10.0 mi West 15.0 mph - N/A   Clear
1:34 PM 42.1 °F 36.1 °F 33.3 °F 71% 30.28 in 10.0 mi WSW 10.4 mph - N/A   Clear
1:54 PM 41.5 °F 35.9 °F 32.9 °F 71% 30.28 in 10.0 mi WSW 9.2 mph - N/A   Clear
2:14 PM 41.5 °F 36.4 °F 32.7 °F 71% 30.29 in 10.0 mi WSW 8.1 mph - N/A   Clear
2:34 PM 41.4 °F 36.2 °F 32.4 °F 70% 30.30 in 10.0 mi SW 8.1 mph - N/A   Clear
2:54 PM 41.4 °F 36.8 °F 32.0 °F 69% 30.29 in 10.0 mi WSW 6.9 mph - N/A   Clear
3:14 PM 41.0 °F 36.4 °F 32.0 °F 70% 30.31 in 10.0 mi WSW 6.9 mph - N/A   Clear
3:34 PM 40.6 °F 34.8 °F 31.8 °F 71% 30.32 in 10.0 mi WSW 9.2 mph - N/A   Clear
3:54 PM 41.0 °F 34.7 °F 31.5 °F 69% 30.32 in 10.0 mi WSW 10.4 mph - N/A   Clear
4:13 PM 40.3 °F 35.5 °F 31.1 °F 70% 30.33 in 10.0 mi WSW 6.9 mph - N/A   Clear
4:34 PM 40.1 °F 35.3 °F 31.1 °F 70% 30.34 in 10.0 mi WSW 6.9 mph - N/A   Clear
4:54 PM 39.0 °F 32.8 °F 30.9 °F 73% 30.35 in 10.0 mi WSW 9.2 mph - N/A   Clear
5:14 PM 38.5 °F 32.1 °F 30.7 °F 74% 30.36 in 10.0 mi WSW 9.2 mph - N/A   Clear
5:34 PM 37.6 °F 31.0 °F 30.4 °F 75% 30.37 in 10.0 mi West 9.2 mph - N/A   Clear
5:54 PM 36.5 °F 29.7 °F 30.2 °F 78% 30.37 in 10.0 mi West 9.2 mph - N/A   Clear
6:14 PM 36.9 °F 30.7 °F 30.6 °F 78% 30.38 in 10.0 mi West 8.1 mph - N/A   Clear
6:34 PM 36.9 °F 30.7 °F 30.4 °F 77% 30.40 in 10.0 mi West 8.1 mph - N/A   Clear
6:54 PM 36.9 °F 31.4 °F 30.4 °F 77% 30.40 in 10.0 mi WSW 6.9 mph - N/A   Clear
7:14 PM 36.0 °F 31.1 °F 30.2 °F 80% 30.41 in 10.0 mi WSW 5.8 mph - N/A   Clear
7:34 PM 36.0 °F 32.1 °F 30.6 °F 81% 30.42 in 10.0 mi West 4.6 mph - N/A   Clear
7:54 PM 35.2 °F 28.1 °F 30.2 °F 82% 30.42 in 10.0 mi West 9.2 mph - N/A   Clear
8:14 PM 35.6 °F 29.2 °F 30.0 °F 80% 30.42 in 10.0 mi West 8.1 mph - N/A   Clear
8:34 PM 34.7 °F 29.6 °F 29.5 °F 81% 30.42 in 10.0 mi WSW 5.8 mph - N/A   Clear
8:54 PM 33.4 °F 27.3 °F 28.9 °F 84% 30.43 in 10.0 mi WSW 6.9 mph - N/A   Clear
9:14 PM 32.9 °F 27.5 °F 28.9 °F 85% 30.43 in 10.0 mi West 5.8 mph - N/A   Clear
9:34 PM 33.1 °F 26.1 °F 29.3 °F 86% 30.44 in 10.0 mi WSW 8.1 mph - N/A   Clear
9:54 PM 33.3 °F 27.1 °F 28.9 °F 84% 30.45 in 10.0 mi WSW 6.9 mph - N/A   Clear
10:14 PM 31.8 °F 25.4 °F 28.4 °F 87% 30.45 in 10.0 mi WSW 6.9 mph - N/A   Clear
10:34 PM 31.1 °F 26.4 °F 27.7 °F 87% 30.46 in 10.0 mi WSW 4.6 mph - N/A   Clear
10:54 PM 31.3 °F 27.9 °F 28.2 °F 88% 30.47 in 10.0 mi WSW 3.5 mph - N/A   Clear
11:14 PM 30.0 °F - 27.5 °F 90% 30.49 in 7.0 mi Calm Calm - N/A   Clear
11:34 PM 30.2 °F 26.7 °F 28.2 °F 92% 30.50 in 7.0 mi SW 3.5 mph - N/A   Clear
11:54 PM 28.2 °F 24.4 °F 26.6 °F 94% 30.50 in 5.0 mi SW 3.5 mph - N/A   Clear